Regional Weather Roundup
Issued by NWS State College, PA

Home | Current Version | Previous Version | Graphics & Text | Print | Product List | Glossary On
Versions: 1 2 3 4 5 6 7 8 9 10 11 12 13 14 15 16 17 18 19 20 21 22 23 24 25 26 27 28 29 30 31 32 33 34 35 36 37 38 39 40 41 42 43 44 45 46 47 48 49 50
000
ASUS41 KCTP 230103
RWRCTP

REGIONAL WEATHER ROUNDUP
NATIONAL WEATHER SERVICE STATE COLLEGE PA
800 PM EST WED NOV 22 2017

Note: "fair" indicates few or no clouds below 12,000 feet with no
significant weather and/or obstructions to visibility.

* = STATION THAT DOES NOT REPORT PRECIPITATION /E.G. RAIN...SNOW...ETC/
    THUNDER OR FOG.

PAZ002>004-007>009-013>016-020>023-029>032-230200-
WESTERN PENNSYLVANIA

CITY           SKY/WX    TMP DP  RH WIND       PRES   REMARKS
ERIE           CLOUDY    34  21  59 NW7       30.24S
MEADVILLE      NOT AVBL
FRANKLIN*      FLURRIES  28  23  81 W7        30.21S
NEW CASTLE     CLOUDY    31  24  75 W3        30.25F
BEAVER COUNTY  CLOUDY   N/A N/A N/A NW5       30.24S
BUTLER*        CLOUDY    30  21  69 W3        30.23F
PITTSBURGH INT CLOUDY    32  20  61 N7        30.23F
PITTSBURGH     CLOUDY    32  16  51 NW8       30.22F
INDIANA*       CLOUDY    32  21  64 VRB7      30.24S
LATROBE        MOCLDY    32  23  69 NW12      30.24R
WASHINGTON CO* CLOUDY    32  22  66 NW3       30.26F
$$

PAZ004>006-010>012-017>019-024>028-033>037-041-042-045-046-049>053-230200-
CENTRAL PENNSYLVANIA

CITY           SKY/WX    TMP DP  RH WIND       PRES   REMARKS
BRADFORD       CLOUDY    27  20  75 NW10      30.13F
DUBOIS         CLOUDY    29  19  66 W10       30.16S
CLEARFIELD     CLOUDY    31  21  66 W10G17    30.17S
JOHNSTOWN      CLOUDY    28  21  75 NW13      30.14R
ALTOONA        CLOUDY    33  21  61 NW18G25   30.17R
STATE COLLEGE  CLOUDY    32  19  59 W17       30.17R
WILLIAMSPORT   CLOUDY    37  21  52 NW10      30.17R
SELINSGROVE    CLOUDY    36  22  56 N10       30.18R
FT INDIANTOWN  CLOUDY    37  20  49 NW14G30   30.12R
CAPITAL CITY   CLOUDY    39  20  46 NW12      30.15R
HARRISBURG     MOCLDY    38  22  52 NW16G23   30.14R
YORK           CLEAR     35  24  64 NW13G21   30.14R
$$

PAZ038>040-043-044-047-048-054-055-060>062-067>071-230200-
EASTERN PENNSYLVANIA

CITY           SKY/WX    TMP DP  RH WIND       PRES   REMARKS
SCRANTON       CLOUDY    33  21  61 N12G23    30.12R
MOUNT POCONO   CLOUDY    28  20  71 NW14G30   30.01F
ALLENTOWN      CLOUDY    38  23  55 NW9       30.09S
QUAKERTOWN*    CLOUDY    37  23  56 NW10      30.09S
READING        CLOUDY    39  24  55 NW17      30.11R
LANCASTER      PTCLDY    38  23  55 NW13G20   30.13R
COATESVILLE    CLEAR     37  23  56 NW13G21   30.10R
POTTSTOWN      CLEAR     37  23  56 N9        30.10S
BLUE BELL      PTCLDY    37  27  65 NW3       30.10R
DOYLESTOWN     PTCLDY    37  23  56 N12G18    30.08R
WILLOW GROVE   NOT AVBL
NORTH PHILA    CLEAR     42  24  49 N20G29    30.10R
PHILADELPHIA   MOCLDY    42  24  49 NW10G21   30.10R
$$




USA.gov is the U.S. government's official web portal to all federal, state and local government web resources and services.